Date,TemperatureHighF,TemperatureAvgF,TemperatureLowF,DewpointHighF,DewpointAvgF,DewpointLowF,HumidityHigh,HumidityAvg,HumidityLow,PressureMaxIn,PressureMinIn,WindSpeedMaxMPH,WindSpeedAvgMPH,GustSpeedMaxMPH,PrecipitationSumIn
2013-9-1,103,87,76,74,69,64,81,58,30,29.86,29.74,13,4,19,0.11
2013-9-2,95,83,75,76,73,69,95,73,47,29.98,29.83,9,2,14,0.29
2013-9-3,98,83,70,73,67,62,87,62,31,29.98,29.87,6,1,11,0.03
2013-9-4,96,84,73,70,67,64,83,59,36,30.07,29.95,13,4,16,0.00
2013-9-5,98,83,71,69,63,60,71,52,29,30.12,30.00,10,3,14,0.00
2013-9-6,99,84,70,68,63,59,81,52,28,30.09,29.94,8,2,13,0.00
2013-9-7,99,85,71,72,64,61,82,53,29,30.02,29.89,9,3,15,0.00
2013-9-8,97,83,69,70,65,61,88,58,32,29.98,29.86,11,3,16,0.00
2013-9-9,95,82,69,70,65,62,86,59,37,30.00,29.91,12,3,17,0.00
2013-9-10,93,80,67,72,66,61,91,63,38,30.11,29.96,10,3,18,0.00
2013-9-11,98,81,68,71,67,64,91,66,36,30.13,30.00,10,1,21,0.00
2013-9-12,96,81,68,73,69,65,93,71,37,30.07,29.92,11,1,19,0.07
2013-9-13,95,80,70,71,69,66,95,71,39,29.98,29.85,14,3,26,0.00
2013-9-14,89,79,69,69,59,56,79,52,38,30.01,29.91,15,6,19,0.00
2013-9-15,94,80,66,67,59,51,60,49,40,30.05,29.95,10,3,13,0.00
2013-9-16,95,84,70,70,64,61,76,54,37,30.09,29.96,10,2,17,0.00
2013-9-17,94,83,73,74,65,58,81,56,41,30.07,29.94,10,4,15,0.01
2013-9-18,93,82,75,77,70,67,80,68,43,30.01,29.88,11,3,15,0.08
2013-9-19,92,79,71,74,70,67,96,75,47,29.99,29.87,14,3,17,0.03
2013-9-20,74,72,68,72,70,62,97,92,82,29.94,29.86,11,4,16,0.60
2013-9-21,83,68,57,62,54,45,92,65,27,29.99,29.87,10,3,14,0.00
2013-9-22,82,66,50,60,53,49,98,68,34,29.97,29.82,8,2,13,0.00
2013-9-23,84,69,56,58,54,49,88,63,31,29.90,29.77,9,2,14,0.00
2013-9-24,92,74,58,65,56,45,96,60,21,29.92,29.82,10,2,19,0.00
2013-9-25,92,71,52,60,54,50,93,61,24,29.91,29.78,6,1,10,0.00
2013-9-26,94,77,61,63,59,54,85,56,31,29.90,29.80,11,2,17,0.00
2013-9-27,91,78,64,68,64,59,87,63,41,29.96,29.86,21,6,21,0.00
2013-9-28,85,75,64,75,68,63,96,81,67,30.03,29.88,14,5,20,0.68
2013-9-29,82,68,60,64,60,55,96,77,42,30.04,29.91,8,2,13,0.00
2013-9-30,86,72,58,68,60,53,95,70,34,29.93,29.81,9,2,12,0.00